sat.trackr.live / text

‹ back to catalog

STARLINK-5858

NORAD 57264 · 2023-094AY

PAYLOAD ACTIVE UNKNOWN

§ Identity

Operator
Country
US
Launch date
2023-07-07
Launch site
AFWTR
Launch vehicle
Mass (kg)
RCS (m²)

Purposes: comms

External: N2YO · Heavens-Above · Gunter

§ Orbital elements

Epoch: 2026-09-20T22:49:29.734176Z

Period
94.27 min
Inclination
43.0035°
Eccentricity
0.0001379
Mean motion
15.27574868 rev/d
Perigee alt
482.1 km
Apogee alt
484.0 km
Semi-major
6,861.2 km
B*
-3.4651e-5
RAAN
357.0661°
Arg perigee
264.2415°
Mean anomaly
95.8279°
Rev number
17,710

§ Raw data

STARLINK-58581 57264U 23094AY  26263.95103859 -.00001215  00000+0 -34651-4 0  99942 57264  43.0035 357.0661 0001379 264.2415  95.8279 15.27574868177102

JSON: /api/v1/satellites/57264 · /tle

For live sub-satellite position, see the globe view (requires WebGL).

§ Visibility from observer

Set your observer location to see the next 7 days of passes ≥ 10°. The values pass through the URL so the page stays shareable.

No JS? Fill the form by hand. The geolocation button needs JavaScript.